Preview of NWS' New Version of Forecast
This preview is not operational and should not be used for support decisions.
Latest weather observations around

Fort Myers, Page Field (KFMY)

Using International System of Units (Switch to English Units)
Date/ Time (EDT) Wind (kph) Vis. (km) Weather Sky Cond. Temp (°C) Rel. Humidity Wind Chill (°C) Heat Index (°C) Pressure Precip. (cm)
Air Dwpt 6 hour Altimeter (hPa) Sea level (hPa) 1 hr 3 hr 6 hr
Max Min
Jun 24 15:53 W 17 16.09 Clear CLR 34 22     49%   39 1016.3 1016.4      
Jun 24 14:53 W 18 16.09 Clear CLR 34 23     52%   39 1016.6 1016.6      
Jun 24 13:53 W 17 16.09 Mostly Clear FEW047 34        %     1016.9 1017      
Jun 24 12:53 8 16.09 Clear CLR 33        %     1017.3 1017.4      
Jun 24 11:53 WNW 11 16.09 Clear CLR 33 19     45%   35 1017.6 1017.7      
Jun 24 10:53 WNW 8 16.09 Mostly Clear FEW029 32 21     52%   34 1017.6 1017.6      
Jun 24 09:53 WSW 9 16.09 Clear CLR 31 20     52%   33 1017.6 1017.6      
Jun 24 08:53 WNW 8 16.09 Clear CLR 29 21     61%   32 1017.3 1017.5      
Jun 24 07:53 Calm 16.09 Clear CLR 28 22     70%   31 1016.6        
Jun 24 06:53 Calm 16.09 Clear CLR 26 23     82%   28 1016.6 1016.6      
Jun 24 05:53 Calm 16.09 Clear CLR 27 22     74%   30 1016.3 1016.3      
Jun 24 04:53 WSW 5 16.09 Clear CLR 27 23     79%   29 1016.3 1016.4      
Jun 24 03:53 WNW 5 16.09 Clear CLR 27 22     76%   29 1016.3 1016.5      
Jun 24 02:53 N 8 16.09 Clear CLR 27 23     77%   30 1016.6 1016.6      
Jun 24 01:53 NNE 8 16.09 Clear CLR 28 23     74%   31 1016.6 1016.9      
Jun 24 00:53 NNW 9 16.09 Clear CLR 28 23     72%   32 1016.9 1017.1      
Jun 23 23:53 NW 9 16.09 Clear CLR 28 23     72%   32 1017.3 1017.4      
Jun 23 22:53 WNW 13 16.09 Clear CLR 29 22     67%   32 1016.9 1017.1      
Jun 23 21:53 W 11 16.09 Clear CLR 29 23     70%   32 1016.6 1016.9      
Jun 23 20:53 WNW 13 16.09 Clear CLR 30 21     59%   33 1016.9 1017      
Jun 23 19:53 WNW 15 16.09 Clear CLR 31 21     54%   34 1016.3 1016.5      
Jun 23 18:53 W 17 16.09 Clear CLR 33 19     44%   34 1016.3 1016.5      
Jun 23 17:53 W 21 16.09 Clear CLR 34 18     38%   35 1016.3 1016.5      
Jun 23 16:53 WSW 17 16.09 Clear CLR 34 19     41%   36 1016.6 1016.6      
Jun 23 15:53 W 18 16.09 Mostly Clear FEW070 34 18     37%   35 1016.9 1017.1      
Jun 23 14:53 WNW 17 16.09 Clear CLR 35 17     35%   36 1017.6 1017.7      
Jun 23 13:53 NW 15 16.09 Clear CLR 35        %     1018 1018.2      
Jun 23 12:53 W 9 16.09 Mostly Clear FEW043 33 20     47%   35 1018.3 1018.6      
Jun 23 11:53 5 16.09 Mostly Clear FEW039 33 19     44%   34 1019 1019      
Jun 23 10:53 Calm 16.09 Clear CLR 32 20     49%   34 1019 1019.1      
Jun 23 09:53 5 16.09 Clear CLR 30 21     59%   33 1019 1019.1      
Jun 23 08:53 ENE 9 14.48 Clear CLR 28 23     74%   31 1019.3 1019.5      
Jun 23 07:53 ENE 5 14.48 Clear CLR 27 22     74%   30 1019.3 1019.4      
Jun 23 06:53 Calm 14.48 Partly Cloudy SCT039 25 22     84%   26 1019 1019.1      
Jun 23 05:53 ENE 5 16.09 Clear   26 22     82%   26 1019 1018.9      
Jun 23 04:53 Calm 16.09 Clear CLR 26 22     79%   28 1018.6 1018.8      
Jun 23 03:53 Calm 16.09 Clear CLR 26 22     79%   28 1018.6 1018.7      
Jun 23 02:53 Calm 16.09 Clear CLR 26 22     79%   28 1019 1019      
Jun 23 01:53 N 5 16.09 Clear CLR 28 22     72%   30 1019.3 1019.5      
Jun 23 00:53 NNE 5 16.09 Clear CLR 28 22     70%   31 1019.3 1019.6      
Jun 22 23:53 N 11 16.09 Clear CLR 28 22     70%   31 1019.7 1019.9      
Jun 22 22:53 NNW 11 16.09 Clear CLR 29 23     70%   32 1019.3 1019.5      
Jun 22 21:53 NNW 11 16.09 Clear CLR 29 23     68%   33 1018.6 1018.8      
Jun 22 20:53 NNW 13 16.09 Clear CLR 31 22     59%   34 1018.6 1018.6      
Jun 22 19:53 E 5 16.09 Clear CLR 32 21     52%   34 1018.6 1018.6      
Jun 22 18:53 N 8 16.09 Clear CLR 33 19     43%   35 1018.3 1018.6      
Jun 22 17:53 5 16.09 Clear CLR 34 19     43%   36 1018.6 1018.7      
Jun 22 16:53 NNE 8 16.09 Clear CLR 33 19     44%   34 1019 1019      
Jun 22 15:53 NNE 8 16.09 Mostly Clear FEW046 33 19     44%   35 1019.3 1019.4      
Jun 22 14:53 N 11 16.09 Clear CLR 33 20     46%   36 1019.7 1019.7      
Jun 22 13:53 NW 11 16.09 Mostly Cloudy BKN043 BKN050 33 19     45%   35 1020.3 1020.3      
Jun 22 12:53 5 16.09 Mostly Cloudy BKN038 32 20     49%   34 1020.3 1020.5      
Jun 22 11:53 Calm 16.09 Clear CLR 32 20     49%   34 1020.7 1020.7      
Jun 22 10:53 Calm 16.09 Clear CLR 31 21     55%   33 1020.3 1020.5      
Jun 22 09:53 E 8 16.09 Clear CLR 29 21     61%   32 1020 1020.2      
Jun 22 08:53 ENE 8 16.09 Clear CLR 28 22     70%   31 1020.7 1020.7      
Jun 22 07:53 Calm 14.48 Mostly Cloudy BKN043 27 23     77%   30 1020.3 1020.3      
Jun 22 06:53 Calm 12.87 Clear CLR 25 23     88%   26 1019.7 1019.7      
Jun 22 05:53 Calm 16.09 Clear CLR 26 23     85%   26 1018.6 1018.9      
Jun 22 04:53 Calm 16.09 Clear CLR 26 23     82%   28 1018.3 1018.5      
Jun 22 03:53 Calm 16.09 Clear CLR 26 23     85%   26 1018.3 1018.5      
Jun 22 02:53 Calm 16.09 Clear CLR 27 23     79%   29 1018.6 1018.8      
Jun 22 01:53 SE 5 16.09 Clear CLR 26 23     82%   28 1019.3 1019.3      
Jun 22 00:53 Calm 16.09 Clear CLR 28 22     70%   31 1019.3 1019.4      
Jun 21 23:53 NW 9 16.09 Clear CLR 28 22     70%   31 1019.7 1019.7      
Jun 21 22:53 NNW 9 16.09 Clear CLR 29 22     67%   32 1019.7 1019.6      
Jun 21 21:53 NW 11 16.09 Clear CLR 29 22     63%   32 1019 1019.1      
Jun 21 20:53 WNW 15 16.09 Clear CLR 30 20     55%   32 1018.6 1018.6      
Jun 21 19:53 NW 17 16.09 Clear CLR 32 18     44%   32 1018.3 1018.5      
Jun 21 18:53 NW 17 16.09 Clear CLR 33 18     42%   34 1018.3 1018.4      
May 14 11:53 SSW 9 8.05 Light Rain and Fog/Mist SCT100 OVC120 24 22     90%   25 1013.6 1013.8 0    
May 14 05:53 SE 8 12.87 Light Rain SCT006 BKN011 OVC030 22 21     96%   22 1013.6 1013.6 0    
May 13 13:07 E 13 14.48 Clear   24 22     88%   25 1016.9   0    
Notice The following observation data may not be complete
May 12 19:53   16.09 Clear CLR          %              
May 12 16:53 ENE 21 16.09 Clear CLR 28 17     51%   29 1017.3 1017.3      
May 12 12:53 NE 11 12.87 Cloudy OVC100 27 18     58%   28 1020 1020      
May 12 05:53 Calm 11.27 Clear CLR 22 17     71%   22 1018.3 1018.4 0    
May 12 02:53 Calm 11.27 Clear CLR 23 16     62%   23 1018.3 1018.4      
May 12 01:53 Calm 9.66 Haze CLR 24 14     55%   24 1018.6 1018.9      
May 12 00:53 S 5 11.27 Clear CLR 25 14     50%   25 1019.3 1019.5      
Jun 11 18:29 E 18 14.48 Clear   24 22     88%   25 1018.3   0    
Jun 11 17:32 5 9.66 Cloudy SCT048 BKN090 OVC110 28 24     77%   32 1017.6   0    
Jun 11 15:53 SE 15 16.09 Clear   32 25     66%   39 1018.3 1018.5      
Jun 11 06:44 E 8 9.66 Fog/Mist SCT005 25 25     100%   26 1018.6        
Jun 10 22:53 E 8 16.09 Clear   24 24     100%   25 1018.6 1018.7      
Jun 10 00:18 Calm 16.09 Light Rain BKN024 OVC034 26 24     90%   28 1014.6   0    
Jun 09 21:53 SSW 5 16.09 Clear CLR 28 22     69%   30 1013.9 1014.2      
Jun 09 07:53 ENE 15 12.87 Mostly Cloudy BKN006 24 23     96%   25 1012.5 1012.7      
Notice The following observation data may not be complete
Jun 06 14:53     Clear            %     1008.1 1008.4 0    
Notice The following observation data may not be complete
Jun 06 13:43   16.09 Cloudy FEW011 OVC017          %         0    
Jun 05 16:53 NNW 11 16.09 Cloudy FEW010 BKN041 OVC110 24 24     97%   25 1012.5 1012.7 0 1